www.pogodaiklimat.ru
ПОГОДА в Ломпоке
Время
и дата
20:15 21.05
20:56 21.05
21:56 21.05
22:56 21.05
23:56 21.05
00:56 22.05
01:56 22.05
02:56 22.05
03:56 22.05
04:56 22.05
05:56 22.05
06:56 22.05
07:56 22.05
08:13 22.05
08:41 22.05
08:56 22.05
09:56 22.05
10:56 22.05
11:56 22.05
12:56 22.05
13:56 22.05
14:56 22.05
15:56 22.05
16:56 22.05
17:56 22.05
18:17 22.05
18:56 22.05
19:56 22.05
20:56 22.05
21:56 22.05
22:56 22.05
23:33 22.05
23:56 22.05
00:56 23.05
01:56 23.05
02:56 23.05
03:56 23.05
04:56 23.05
05:56 23.05
06:56 23.05
07:25 23.05
07:56 23.05
08:56 23.05
09:56 23.05
10:56 23.05
11:56 23.05
12:56 23.05
13:56 23.05
Ветер
(напр.,м/с)
Видим. Явления Облачность Т
(С)
Тd
(С)
f
(%)
Тe
(С)
Тes
(С)
Комфортность P
(гПа)
Po
(гПа)
Тmin
(С)
Tmax
(С)
R
(мм)
R24
(мм)
S
(см)
СЗ 1 16 км 10/10 240 м +11.0 +9.0 87 +9 +9 1013.9
штиль 0 16 км 10/10 240 м +11.1 +8.9 86 +10 +10 1017.5 1014.2
нст 1 16 км 10/10 240 м +10.6 +8.9 89 +9 +9 1018.1 1014.6 +10.6 +17.2
СЗ 1 16 км 10/10 240 м +11.1 +8.9 86 +9 +9 1018.2 1014.6
З 1 16 км 10/10 240 м +10.6 +8.9 89 +9 +9 1018.0 1014.6
штиль 0 16 км 10/10 240 м +10.6 +8.3 86 +10 +10 1017.6 1014.2
З 1 16 км 10/10 240 м +10.6 +8.9 89 +9 +9 1017.5 1014.2
СЗ 1 16 км 10/10 240 м +10.0 +8.3 89 +8 +8 1017.4 1013.9
штиль 0 14 км 10/10 180 м +10.0 +8.3 89 +9 +9 1017.3 1013.9 +10.0 +11.1
14 км 10/10 180 м +10.0 +8.9 93 +9 +9 1017.5 1013.9
З 1 11 км 10/10 180 м +10.0 +8.9 93 +8 +8 1018.0 1014.6
СЗ 1 16 км 10/10 180 м +10.6 +8.9 89 +9 +9 1018.0 1014.6
нст 1 16 км 10/10 240 м +11.1 +8.9 86 +10 +10 1018.3 1014.9
штиль 0 16 км 10/10 300 м +12.0 +9.0 82 +11 +11 1014.6
ЮЗ 1 16 км 2/2 360 м +13.0 +9.0 77 +12 +17 1014.6
штиль 0 16 км ясно +13.3 +8.9 75 +13 +23 1017.9 1014.2
З 3 16 км ясно +15.6 +9.4 67 +14 +19 1017.8 1014.2 +10.0 +15.6
З 3 16 км ясно +16.1 +9.4 64 +15 +19 1017.4 1013.9
З 3 16 км ясно +16.1 +10.0 67 +15 +20 1016.9 1013.6
З 3
{4}
16 км ясно +16.7 +9.4 62 +16 +21 1016.6 1013.2
З 3
{5}
16 км ясно +15.0 +9.4 69 +13 +19 1016.9 1013.6
З 4
{4}
16 км ясно +15.0 +9.4 69 +13 +16 1016.6 1013.2
З 3
{4}
16 км ясно +15.6 +9.4 67 +14 +19 1016.1 1012.6 +15.0 +17.2
З 4
{4}
14 км ясно +14.4 +9.4 72 +12 +14 1016.1 1012.6
СЗ 3 16 км 5/5 420 м +13.3 +8.9 75 +11 +12 1016.2 1012.6
СЗ 2 16 км 8/8 360 м +12.0 +9.0 82 +10 +10 1012.9
З 3 16 км 10/10 360 м +12.2 +8.9 80 +10 +10 1016.3 1012.9
З 2 16 км 10/10 300 м +11.7 +9.4 86 +9 +9 1016.4 1012.9
З 1 16 км 10/10 300 м +11.7 +9.4 86 +10 +10 1016.6 1013.2
штиль 0 16 км 10/10 300 м +11.7 +9.4 86 +11 +11 1016.5 1012.9 +11.7 +15.6
З 1 13 км 10/10 300 м +11.7 +9.4 86 +11 +11 1015.9 1012.6
штиль 0 14 км 10/10 240 м +11.0 +9.0 87 +10 +10 1012.2
штиль 0 14 км 10/10 240 м +11.1 +9.4 89 +10 +10 1015.6 1012.2
штиль 0 13 км 10/10 240 м +11.1 +9.4 89 +10 +10 1015.3 1011.9
штиль 0 13 км 10/10 240 м +11.1 +9.4 89 +10 +10 1015.0 1011.5
штиль 0 14 км 10/10 240 м +10.6 +9.4 92 +10 +10 1015.0 1011.5
штиль 0 14 км 10/10 240 м +10.6 +9.4 92 +10 +10 1014.8 1011.2 +10.6 +11.7
штиль 0 11 км 10/10 180 м +10.6 +9.4 92 +10 +10 1014.8 1011.2
ЮВ 1 13 км 10/10 180 м +10.6 +9.4 92 +9 +9 1014.8 1011.2
СВ 1 14 км 10/10 180 м +11.1 +9.4 89 +10 +10 1015.0 1011.5
штиль 0 14 км 5/5 240 м +12.0 +9.0 82 +11 +14 1011.5
нст 1 16 км ясно +13.3 +9.4 77 +13 +16 1014.9 1011.5
З 1 16 км ясно +16.1 +10.6 70 +16 +22 1014.3 1010.9
З 3
{4}
16 км ясно +16.1 +10.6 70 +15 +20 1014.0 1010.5 +10.6 +17.2
З 3 16 км ясно +17.8 +10.0 60 +17 +22 1013.6 1010.2
З 3 16 км ясно +17.8 +10.0 60 +17 +22 1013.2 1009.9
З 3 16 км ясно +17.8 +10.0 60 +17 +23 1013.0 1009.5
З 4
{4}
16 км ясно +17.2 +10.0 63 +16 +20 1012.6 1009.2
Местоположение метеостанции Lompoc Airport: широта 34.6667 долгота -120.4667 высота над уровнем моря 27 м.
В архиве по умолчанию представлена погода в Ломпоке за последние 1-2 суток. Обновление информации о фактической погоде в базе происходит ежечасно! Архивные данные за месяц целиком и за предыдущие месяцы Вы можете получить, выбрав интересующий диапазон дат из раскрывающегося списка и нажав кнопку "Ввод!".
Внимание! Архив погоды МЕТАР в базе сайта по станциям, не включенным в климатический монитор, хранится не более 60 дней. Нет смысла пытаться выбрать более раннюю дату.
*Определитесь, кто Вы:
Внимание! Время в таблицах - местное (без учета летнего времени). Для получения всемирного времени необходимо вычесть поправку, которая равна -8 ч.
Смотрите также архив погоды в соседних городах и на ближайших метеорологических станциях:
Партнеры нашего сайта:      
Пояснения к столбцам:
  • Ветер - указаны скорость ветра в м/с - средняя за 10 мин, порывы в срок и между сроками (в фигурных скобках) и направление, откуда дует ветер: С - северный,
  • СВ - северо-восточный, В - восточный, ЮВ - юго-восточный, Ю - южный, ЮЗ - юго-западный, З - западный, СЗ - северо-западный.
  • Видимость - горизонтальная дальность видимости в метрах или километрах. При видимости от 1 до 10 км при отсутствии осадков обычно наблюдается дымка, при ухудшении видимости до 1 км и менее - туман. В сухую погоду видимость может ухудшаться дымом, пылью или мглою.
  • Явления - указаны атмосферные явления, наблюдавшиеся в срок или в последний час перед сроком; фигурными скобками обозначены явления, наблюдавшиеся между сроками (за 1-3 часа до срока); квадратными скобками обозначены град или гололедные отложения с указанием их диаметра в мм.
  • Облачность - указаны через наклонную черту общая и нижняя облачность в баллах и высота нижней границы облаков в метрах; квадратными скобками обозначены формы облаков: Ci - перистые, Cs - перисто-слоистые, Cc - перисто-кучевые, Ac - высококучевые, As - высокослоистые, Sc - слоисто-кучевые, Ns - слоисто-дождевые, Cu - кучевые, Cb - кучево-дождевые. Подробнее классификацию облаков см. в Атласе облаков (PDF).
  • T - Температура воздуха - температура, измеренная на высоте 2 м над землей.
  • Td - Температура точки росы - температура, при понижении до которой содержащийся в воздухе водяной пар достигнет насыщения.
  • f - Относительная влажность воздуха - влажноcть воздуха, измеренная на высоте 2 м над землей.
  • Te - Эффективная температура - температура, которую ощущает одетый по сезону человек в тени. Характеристика душности погоды. При расчете учитывается влияние влажности воздуха и скорости ветра на теплоощущения человека.
  • Tes - Эффективная температура на солнце - температура, которую ощущает человек, с поправкой на солнечный нагрев. Характеристика знойности погоды. Зависит от высоты солнца над горизонтом, облачности и скорости ветра. Ночью, в пасмурную погоду, а также при ветре 12 м/с и более поправка равна нулю.
  • P - Атмосферное давление - приведенное к уровню моря атмосферное давление.
  • Po - Атмосферное давление - измеренное на уровне метеостанции атмосферное давление.
  • Tmin - Минимальная температура - минимум температуры воздуха на высоте 2 м над землей.
  • Tmax - Максимальная температура - максимум температуры воздуха на высоте 2 м над землей.
  • R - Количество осадков - Количество выпавших осадков за период времени, мм. При наведении курсора мыши на число - период времени, за который выпало указанное количество осадков.
  • R24 - Количество осадков - Количество выпавших осадков за 24 часа, мм.
  • S - Снежный покров - Высота снежного покрова, см. При наведении курсора мыши на число - состояние снежного покрова и степень покрытия местности в баллах.